Flag for Germany Weather past 2 weeks in Oldenburg, Lower Saxony, Germany

Now
55 °F

Sprinkles. Partly sunny.


Feels Like: 53 °F
Forecast: 48 / 63 °F
Wind: 9 mph from West

Location: Bremen Airport

Current Time: Aug 23, 2014 at 6:25:07 PM

Latest Report: Aug 23, 2014 at 5:50 PM


Visibility: N/A

Pressure: 29.89 "Hg

Humidity: 82%

Dew point: 50 °F

Location of OldenburgLocation

Historic Weather in Oldenburg — Graph

°F

Oldenburg temperature yesterday

Maximum temperature yesterday: 64 °F (at 12:50 PM)
Minimum temperature yesterday: 50 °F (at 10:50 PM)
Average temperature yesterday: 57 °F

Past Weeks' High & Low Weather Summary

 TemperatureHumidityPressure
High79 °F (Aug 8, 5:20 PM)100% (Aug 15, 3:20 AM)29.98 "Hg (Aug 15, 3:20 AM)
Low45 °F (Aug 21, 5:20 AM)40% (Aug 13, 3:20 PM)29.53 "Hg (Aug 18, 6:20 AM)
Average60 °F77%29.78 "Hg
* Reported Aug 8 5:20 PM — Aug 23 5:20 PM, Oldenburg, Weather by CustomWeather, © 2014

Note: Actual official high and low records may vary slightly from our data, if they occured in-between our weather recording intervals... More about our weather records

Advertising

Oldenburg weather history for previous 24 hours

 ConditionsComfort  
Time TempWeatherWind HumidityBarometerVisibility
5:20 PM
Aug 23
57 °FScattered showers. Partly sunny.5 mph82%29.89 "HgN/A
4:50 PM55 °FSprinkles. Broken clouds.2 mph88%29.89 "HgN/A
4:20 PM55 °FBroken clouds.8 mph82%29.89 "HgN/A
3:50 PM57 °FSprinkles. Broken clouds.21 mph72%29.86 "HgN/A
3:20 PM63 °FBroken clouds.9 mph52%29.86 "HgN/A
2:50 PM63 °FScattered clouds.10 mph52%29.86 "HgN/A
2:20 PM64 °FScattered clouds.13 mph49%29.86 "HgN/A
1:50 PM64 °FScattered clouds.15 mph46%29.86 "HgN/A
1:20 PM63 °FScattered clouds.14 mph52%29.86 "HgN/A
12:50 PM63 °FScattered clouds.13 mph59%29.86 "HgN/A
12:20 PM63 °FScattered clouds.12 mph59%29.86 "HgN/A
11:50 AM61 °FScattered clouds.12 mph63%29.86 "HgN/A
11:20 AM59 °FScattered clouds.12 mph68%29.86 "HgN/A
10:50 AM59 °FScattered clouds.13 mph72%29.86 "HgN/A
10:20 AM57 °FScattered clouds.10 mph77%29.86 "HgN/A
9:50 AM55 °FScattered clouds.10 mph88%29.86 "HgN/A
9:20 AM55 °FScattered clouds.8 mph88%29.86 "HgN/A
8:50 AM54 °FScattered clouds.8 mph94%29.86 "HgN/A
8:20 AM52 °FScattered clouds.6 mph94%29.86 "Hg5 mi
7:50 AM50 °FScattered clouds.7 mph100%29.86 "Hg4 mi
7:20 AM50 °FFog.7 mph94%29.83 "Hg3 mi
6:50 AM48 °FFog.7 mph100%29.83 "Hg2 mi
6:20 AM48 °FFog.7 mph100%29.83 "Hg2 mi
5:50 AM48 °FFog.5 mph100%29.83 "Hg3 mi
5:20 AM50 °FFog.6 mph94%29.83 "Hg3 mi
4:50 AM50 °FFog.7 mph100%29.83 "Hg2 mi
4:20 AM52 °FFog.7 mph94%29.83 "Hg2 mi
3:50 AM52 °FFog.7 mph94%29.83 "Hg2 mi
3:20 AM50 °FFog.9 mph100%29.83 "Hg3 mi
2:50 AM50 °FFog.8 mph94%29.83 "Hg3 mi
2:20 AM48 °FPassing clouds.8 mph100%29.83 "Hg4 mi
1:50 AM48 °FClear.7 mph100%29.83 "Hg6 mi
1:20 AM48 °FClear.7 mph100%29.83 "Hg10 mi
12:50 AM50 °FPassing clouds.7 mph94%29.83 "HgN/A
12:20 AM48 °FPassing clouds.8 mph100%29.83 "HgN/A
11:50 PM
Aug 22
50 °FClear.7 mph94%29.83 "Hg10 mi
11:20 PM50 °FClear.9 mph94%29.83 "Hg10 mi
10:50 PM50 °FClear.8 mph94%29.83 "Hg10 mi
10:20 PM52 °FPassing clouds.8 mph94%29.83 "HgN/A
9:50 PM52 °FPassing clouds.7 mph94%29.83 "HgN/A
9:20 PM54 °FBroken clouds.9 mph88%29.83 "HgN/A
8:50 PM54 °FLight rain. Broken clouds.8 mph94%29.80 "HgN/A
8:20 PM54 °FLight rain. Broken clouds.10 mph94%29.80 "HgN/A
7:50 PM54 °FLight rain. Broken clouds.15 mph88%29.80 "HgN/A
7:20 PM57 °FLight rain. Broken clouds.12 mph82%29.77 "HgN/A
6:50 PM59 °FSprinkles. Broken clouds.16 mph72%29.77 "HgN/A
6:20 PM63 °FPartly sunny.13 mph64%29.77 "HgN/A
Weather by CustomWeather, © 2014

See weather overviewHow to use our weather pages